Tracking 28520 objects as of 1-Mar-2024
HD Live streaming from Space Station
objects crossing your sky now

STARLINK-3321

Track STARLINK-3321 now!
10-day predictions
STARLINK-3321 is classified as:


NORAD ID: 50803
Int'l Code: 2022-001A
Perigee: 545.8 km
Apogee: 548.0 km
Inclination: 53.2 °
Period: 95.4 minutes
Semi major axis: 6917 km
RCS: Unknown
Launch date: January 6, 2022
Source: United States (US)
Launch site: AIR FORCE EASTERN TEST RANGE (AFETR)
Your satellite tracking list
Your tracking list is empty




NASA's NSSDC Master Catalog

Two Line Element Set (TLE):
1 50803U 22001A   24060.48192748 -.00000568  00000-0 -17571-4 0  9992
2 50803  53.2169 247.5540 0001556  93.7216 266.3954 15.08841811118817
Source of the keplerian elements: AFSPC